TimeEST,TemperatureF,Dew PointF,Humidity,Sea Level PressureIn,VisibilityMPH,Wind Direction,Wind SpeedMPH,Gust SpeedMPH,PrecipitationIn,Events,Conditions,WindDirDegrees,DateUTC
12:55 AM,14.5,4.1,63,29.96,10.0,Calm,Calm,-,N/A,,Clear,0,2013-01-02 05:55:00
1:55 AM,16.9,6.6,64,29.98,10.0,WNW,15.0,-,N/A,,Clear,300,2013-01-02 06:55:00
2:55 AM,15.6,6.3,67,29.99,10.0,WNW,10.4,-,N/A,,Clear,290,2013-01-02 07:55:00
3:55 AM,14.5,5.5,68,29.97,10.0,WNW,10.4,-,N/A,,Clear,290,2013-01-02 08:55:00
4:55 AM,15.4,5.9,66,29.97,10.0,WNW,10.4,-,N/A,,Clear,290,2013-01-02 09:55:00
5:55 AM,14.9,5.4,66,29.97,10.0,West,10.4,-,N/A,,Clear,260,2013-01-02 10:55:00
6:55 AM,14.9,5.7,67,29.97,10.0,West,12.7,-,N/A,,Clear,260,2013-01-02 11:55:00
7:55 AM,13.1,5.0,70,29.97,10.0,WNW,9.2,-,N/A,,Clear,290,2013-01-02 12:55:00
8:55 AM,18.1,7.2,62,29.97,10.0,West,6.9,-,N/A,,Clear,260,2013-01-02 13:55:00
9:55 AM,22.6,9.9,58,29.99,10.0,West,12.7,-,N/A,,Mostly Cloudy,270,2013-01-02 14:55:00
10:55 AM,25.5,10.9,54,29.98,10.0,West,10.4,-,N/A,,Mostly Cloudy,260,2013-01-02 15:55:00
11:55 AM,27.0,12.9,56,29.95,10.0,West,12.7,-,N/A,,Overcast,270,2013-01-02 16:55:00
12:55 PM,27.9,14.0,56,29.94,10.0,West,16.1,-,N/A,,Overcast,280,2013-01-02 17:55:00
1:55 PM,28.6,13.5,53,29.95,10.0,WNW,12.7,24.2,N/A,,Mostly Cloudy,300,2013-01-02 18:55:00
2:55 PM,27.3,12.2,53,29.97,10.0,West,17.3,24.2,N/A,,Mostly Cloudy,280,2013-01-02 19:55:00
3:55 PM,27.1,10.9,51,30.01,10.0,NW,13.8,-,N/A,,Mostly Cloudy,320,2013-01-02 20:55:00
4:55 PM,25.7,11.1,54,30.02,10.0,WNW,13.8,-,N/A,,Mostly Cloudy,300,2013-01-02 21:55:00
5:55 PM,23.9,12.6,62,30.04,10.0,West,8.1,-,N/A,,Mostly Cloudy,280,2013-01-02 22:55:00
6:55 PM,23.9,10.8,57,30.06,10.0,NW,12.7,-,N/A,,Clear,310,2013-01-02 23:55:00
7:55 PM,22.1,9.7,59,30.08,10.0,WNW,10.4,-,N/A,,Clear,290,2013-01-03 00:55:00
8:55 PM,20.3,6.4,55,30.10,10.0,North,6.9,-,N/A,,Clear,350,2013-01-03 01:55:00
9:55 PM,18.0,1.8,49,30.11,10.0,NNW,9.2,-,N/A,,Clear,340,2013-01-03 02:55:00
10:55 PM,15.8,2.7,56,30.15,10.0,NNW,8.1,-,N/A,,Clear,340,2013-01-03 03:55:00
11:55 PM,11.5,-0.0,60,30.17,10.0,North,11.5,-,N/A,,Clear,360,2013-01-03 04:55:00